Weather History for KNFW - June, 2013

Change the Weather History Date:

Sunday, June 23, 2013

  Actual Average Record
Temperature  
Mean Temperature 88 °F -  
Max Temperature 97 °F 88 °F 102 °F (2010)
Min Temperature 79 °F 71 °F 66 °F (2001)
Cooling Degree Days 22    
Growing Degree Days 38 (Base 50)    
Moisture  
Dew Point 65 °F    
Average Humidity 46    
Maximum Humidity 64    
Minimum Humidity 32    
Precipitation  
Precipitation 0.00 in - - ()
Sea Level Pressure  
Sea Level Pressure 29.92 in    
Wind  
Wind Speed 16 mph (SSE)    
Max Wind Speed 21 mph    
Max Gust Speed 32 mph    
Visibility 10 miles    
Events      
Averages and records for this station are not official NWS values.
T = Trace of Precipitation, MM = Missing Value Source: NWS Daily Summary

Daily Weather History Graph

Daily Weather History Graph

Search for Another Location

Airport or City:

Trip Planner

Search our weather history database for the weather conditions in past years. The results will help you decide how hot, cold, wet, or windy it might be!

Date:

Astronomy

Jun. 23, 2013 Rise Set
Actual Time 6:22 AM CDT 8:41 PM CDT
Civil Twilight 5:54 AM CDT 9:10 PM CDT
Nautical Twilight 5:18 AM CDT 9:45 PM CDT
Astronomical Twilight 4:40 AM CDT 10:23 PM CDT
Moon 8:59 PM CDT (6/23) 6:38 AM CDT (6/23)
Length of Visible Light 15h 15m
Length of Day
14h 18m
Full, 100% of the Moon is Illuminated
Jun 23
Full
Jun 29
Last Quarter
Jul 8
New
Jul 15
First Quarter
Jul 22
Full

Hourly Weather History & Observations

Time (CDT) Temp. Heat Index Dew Point Humidity Pressure Visibility Wind Dir Wind Speed Gust Speed Precip Events Conditions
12:52 AM 87.1 °F 88.3 °F 64.0 °F 46% 29.91 in 10.0 mi SSE 17.3 mph 21.9 mph N/A   Clear
1:52 AM 86.0 °F 87.6 °F 64.9 °F 49% 29.91 in 10.0 mi South 17.3 mph - N/A   Clear
2:52 AM 84.9 °F 87.1 °F 66.0 °F 53% 29.90 in 10.0 mi South 16.1 mph - N/A   Clear
3:52 AM 82.9 °F 85.4 °F 66.9 °F 58% 29.91 in 10.0 mi South 13.8 mph - N/A   Clear
4:52 AM 82.0 °F 84.5 °F 66.9 °F 60% 29.91 in 10.0 mi South 13.8 mph - N/A   Clear
5:52 AM 80.1 °F 82.1 °F 66.0 °F 62% 29.92 in 10.0 mi South 11.5 mph - N/A   Clear
6:52 AM 79.0 °F - 66.0 °F 64% 29.94 in 10.0 mi South 11.5 mph - N/A   Clear
7:52 AM 80.1 °F 82.3 °F 66.9 °F 64% 29.94 in 10.0 mi South 13.8 mph - N/A   Clear
7:56 AM 80.6 °F 82.7 °F 66.2 °F 61% 29.99 in 10.0 mi South 15.0 mph - N/A   Partly Cloudy
8:52 AM 82.9 °F 85.4 °F 66.9 °F 58% 29.96 in 10.0 mi South 16.1 mph - N/A   Partly Cloudy
9:52 AM 86.0 °F 89.4 °F 68.0 °F 55% 29.97 in 10.0 mi South 12.7 mph 19.6 mph N/A   Partly Cloudy
10:52 AM 88.0 °F 90.7 °F 66.9 °F 49% 29.98 in 10.0 mi South 13.8 mph 23.0 mph N/A   Partly Cloudy
11:52 AM 91.0 °F 94.3 °F 66.9 °F 45% 29.96 in 10.0 mi SSE 17.3 mph 23.0 mph N/A   Scattered Clouds
12:52 PM 93.9 °F 97.0 °F 66.0 °F 40% 29.94 in 10.0 mi SSE 17.3 mph 24.2 mph N/A   Scattered Clouds
1:52 PM 95.0 °F 97.9 °F 66.0 °F 38% 29.92 in 10.0 mi SSE 17.3 mph 27.6 mph N/A   Scattered Clouds
2:52 PM 96.1 °F 97.3 °F 63.0 °F 33% 29.90 in 10.0 mi South 20.7 mph 32.2 mph N/A   Scattered Clouds
3:52 PM 96.1 °F 97.3 °F 63.0 °F 33% 29.88 in 10.0 mi SSE 17.3 mph 26.5 mph N/A   Scattered Clouds
4:52 PM 95.0 °F 95.6 °F 62.1 °F 33% 29.88 in 10.0 mi SSE 19.6 mph 25.3 mph N/A   Scattered Clouds
5:52 PM 96.1 °F 96.9 °F 62.1 °F 32% 29.87 in 10.0 mi SSE 16.1 mph 26.5 mph N/A   Clear
6:52 PM 93.9 °F 94.8 °F 62.1 °F 35% 29.87 in 10.0 mi SSE 13.8 mph - N/A   Clear
7:52 PM 93.9 °F 93.6 °F 60.1 °F 32% 29.87 in 10.0 mi SSE 15.0 mph 21.9 mph N/A   Clear
8:52 PM 93.0 °F 93.0 °F 61.0 °F 34% 29.87 in 10.0 mi SSE 13.8 mph - N/A   Clear
9:52 PM 91.0 °F 91.5 °F 62.1 °F 38% 29.89 in 10.0 mi SSE 12.7 mph - N/A   Clear
10:52 PM 89.1 °F 90.3 °F 64.0 °F 43% 29.91 in 10.0 mi SSE 16.1 mph - N/A   Clear
11:52 PM 88.0 °F 89.3 °F 64.0 °F 45% 29.93 in 10.0 mi South 12.7 mph 23.0 mph N/A   Clear